Location: 22
(39.7117°N, 89.5929°W)
Time: 10:43:22
(UTC-06:00)

A-11 Canister half - Visible Passes

Search period start: 29 January 2023 00:00
Search period end: 08 February 2023 00:00
Orbit: 1525 x 1683 km, 47.3° (Epoch: 28 January)

Date Brightness Start Highest point End Pass type
(mag) Time Alt. Az. Time Alt. Az. Time Alt. Az.
29 Jan 11.0 04:31:30 10° SSE 04:37:31 19° SE 04:43:33 10° E visible
29 Jan 9.4 06:32:00 10° SW 06:41:09 68° SE 06:50:30 10° ENE visible
30 Jan 11.0 04:10:15 10° SSE 04:15:55 18° SE 04:21:35 10° E visible
30 Jan 9.4 06:10:22 10° SW 06:19:29 65° SE 06:28:45 10° ENE visible
31 Jan 11.0 03:49:03 10° SSE 03:54:18 17° SE 03:59:34 10° E visible
31 Jan 9.4 05:48:45 10° SW 05:57:50 62° SE 06:07:02 10° ENE visible
01 Feb 11.0 03:27:55 10° SSE 03:32:43 15° ESE 03:37:30 10° E visible
01 Feb 9.5 05:27:08 10° SW 05:36:10 59° SE 05:45:18 10° ENE visible
02 Feb 11.0 03:06:51 10° SSE 03:11:07 14° ESE 03:15:22 10° E visible
02 Feb 9.5 05:05:32 10° SW 05:14:30 56° SE 05:23:34 10° ENE visible
03 Feb 11.0 02:47:01 11° SE 02:49:31 13° ESE 02:53:07 10° E visible
03 Feb 9.5 04:45:24 16° SSW 04:52:51 54° SE 05:01:50 10° ENE visible
04 Feb 11.0 02:27:28 12° SE 02:27:55 12° ESE 02:30:40 10° ESE visible
04 Feb 9.5 04:25:50 25° SSW 04:31:12 51° SE 04:40:05 10° ENE visible
04 Feb 9.0 06:26:43 10° WSW 06:36:01 71° NNW 06:45:27 10° ENE visible
05 Feb 11.2 02:07:43 10° ESE 02:07:43 10° ESE 02:07:44 10° ESE visible
05 Feb 9.5 04:06:04 35° S 04:09:33 49° SE 04:18:22 10° ENE visible
05 Feb 9.0 06:04:59 10° WSW 06:14:17 73° NNW 06:23:43 10° ENE visible
06 Feb 9.5 03:46:09 42° SSE 03:47:55 46° SE 03:56:37 10° ENE visible
06 Feb 9.0 05:44:28 15° WSW 05:52:34 75° NNW 06:01:59 10° ENE visible
07 Feb 9.6 03:26:05 44° SE 03:26:16 44° SE 03:34:52 10° ENE visible
07 Feb 8.9 05:24:25 23° WSW 05:30:51 77° NNW 05:40:16 10° ENE visible
